User: anonymous   Login
Location: Theydon Bois
(51.6750°N, 0.1050°E)
Time: 18:27:12
(UTC+00:00)
Language:

FengYun 1-2 T - Orbit

View from above orbital plane
View from above orbital plane
View from above satellite
View from above satellite

Ground track
Ground track

The orbit data is extracted from the following two-line orbital elements,

1 20855U 90081T   18049.07889705  .00000014  00000-0  32656-4 0  9995
2 20855  98.7794  80.2513 0025138  89.3077 328.1426 14.08647297411389
Epoch (UTC): 18 February 2018 01:53:36
Eccentricity: 0.0025138
inclination: 98.7794°
perigee height: 846 km
apogee height: 882 km
right ascension of ascending node: 80.2513°
argument of perigee: 89.3077°
revolutions per day: 14.08647297
mean anomaly at epoch: 328.1426°
orbit number at epoch: 41138

The dashed part of the orbit path shows where the satellite is in the earth's shadow,  

DLR